Satellite: ORSTED
Catalog number: 25635
Epoch time:      103015.52410898
Element set:     807 
Inclination:       96.4478 deg
RA of node:         9.9149 deg
Eccentricity:    0.0146968
Arg of perigee:    77.0926 deg
Mean anomaly:     284.6642 deg
Mean motion:   14.44771016 rev/day
Decay rate:    9.0699E-006 rev/day^2
Epoch rev:           20502
Checksum:              339

Satellite: SUNSAT
Catalog number: 25636
Epoch time:      103014.97565638
Element set:     694 
Inclination:       96.4497 deg
RA of node:         8.2260 deg
Eccentricity:    0.0150678
Arg of perigee:    84.9045 deg
Mean anomaly:     276.9329 deg
Mean motion:   14.42918235 rev/day
Decay rate:    4.2100E-006 rev/day^2
Epoch rev:           20482
Checksum:              325

Satellite: UOSAT 12
Catalog number: 25693
Epoch time:      103016.35884456
Element set:     616 
Inclination:       64.5598 deg
RA of node:       112.4301 deg
Eccentricity:    0.0017220
Arg of perigee:   317.1629 deg
Mean anomaly:      42.8116 deg
Mean motion:   14.76348676 rev/day
Decay rate:    5.0100E-006 rev/day^2
Epoch rev:           20135
Checksum:              289

Satellite: FENGYUN 1C
Catalog number: 25730
Epoch time:      103016.20028695
Element set:     743 
Inclination:       98.6369 deg
RA of node:        41.8526 deg
Eccentricity:    0.0015358
Arg of perigee:    97.0890 deg
Mean anomaly:     263.2030 deg
Mean motion:   14.11729058 rev/day
Decay rate:   -4.1999E-007 rev/day^2
Epoch rev:           18992
Checksum:              327

Satellite: ASTRA 1H
Catalog number: 25785
Epoch time:      103013.00000000
Element set:     368 
Inclination:        0.0122 deg
RA of node:       319.8851 deg
Eccentricity:    0.0002995
Arg of perigee:    65.1991 deg
Mean anomaly:     106.1621 deg
Mean motion:    1.00273184 rev/day
Decay rate:    1.3899E-006 rev/day^2
Epoch rev:            1313
Checksum:              244

Satellite: TERRA
Catalog number: 25994
Epoch time:      103016.28271161
Element set:     607 
Inclination:       98.2030 deg
RA of node:        93.0092 deg
Eccentricity:    0.0001063
Arg of perigee:    79.0100 deg
Mean anomaly:     281.1221 deg
Mean motion:   14.57092750 rev/day
Decay rate:    8.9300E-006 rev/day^2
Epoch rev:           16382
Checksum:              264

Satellite: JAWSAT
Catalog number: 26061
Epoch time:      103015.55043234
Element set:     741 
Inclination:      100.2116 deg
RA of node:        66.2968 deg
Eccentricity:    0.0035364
Arg of perigee:    16.2859 deg
Mean anomaly:     343.9451 deg
Mean motion:   14.37781734 rev/day
Decay rate:    6.8499E-006 rev/day^2
Epoch rev:           15564
Checksum:              405

Satellite: OPAL
Catalog number: 26063
Epoch time:      103015.19259967
Element set:     698 
Inclination:      100.2173 deg
RA of node:        63.5271 deg
Eccentricity:    0.0037470
Arg of perigee:    23.6329 deg
Mean anomaly:     336.6561 deg
Mean motion:   14.35465494 rev/day
Decay rate:    2.0400E-006 rev/day^2
Epoch rev:           15545
Checksum:              403

Satellite: ASUSAT
Catalog number: 26065
Epoch time:      103015.56832035
Element set:     709 
Inclination:      100.2166 deg
RA of node:        64.1124 deg
Eccentricity:    0.0037630
Arg of perigee:    24.3016 deg
Mean anomaly:     335.9928 deg
Mean motion:   14.35491875 rev/day
Decay rate:    2.3499E-006 rev/day^2
Epoch rev:           15550
Checksum:              288

Satellite: GOES 11
Catalog number: 26352
Epoch time:      103015.41373847
Element set:     975 
Inclination:        0.0621 deg
RA of node:       111.7636 deg
Eccentricity:    0.0004333
Arg of perigee:   170.5422 deg
Mean anomaly:     228.6914 deg
Mean motion:    1.00261813 rev/day
Decay rate:   -2.0999E-007 rev/day^2
Epoch rev:             989
Checksum:              281

Satellite: EUTELSAT W4
Catalog number: 26369
Epoch time:      103015.73563206
Element set:     339 
Inclination:        0.0462 deg
RA of node:        31.1411 deg
Eccentricity:    0.0002930
Arg of perigee:   207.4780 deg
Mean anomaly:     177.1155 deg
Mean motion:    1.00276459 rev/day
Decay rate:    1.7400E-006 rev/day^2
Epoch rev:             971
Checksum:              256

Satellite: FENGYUN 2B
Catalog number: 26382
Epoch time:      103015.66515225
Element set:     769 
Inclination:        0.6483 deg
RA of node:       287.2538 deg
Eccentricity:    0.0000513
Arg of perigee:   158.3809 deg
Mean anomaly:      12.9282 deg
Mean motion:    1.00265230 rev/day
Decay rate:   -3.0900E-006 rev/day^2
Epoch rev:             937
Checksum:              276

Satellite: EUTELSAT W1
Catalog number: 26487
Epoch time:      103014.91145256
Element set:     342 
Inclination:        0.0167 deg
RA of node:        83.1515 deg
Eccentricity:    0.0007361
Arg of perigee:   134.8152 deg
Mean anomaly:     234.1453 deg
Mean motion:    1.00272094 rev/day
Decay rate:    8.8000E-007 rev/day^2
Epoch rev:             867
Checksum:              363

Satellite: ASTRA 2B
Catalog number: 26494
Epoch time:      103013.00000000
Element set:     251 
Inclination:        0.0178 deg
RA of node:       354.5658 deg
Eccentricity:    0.0005000
Arg of perigee:   302.8402 deg
Mean anomaly:     202.8287 deg
Mean motion:    1.00276704 rev/day
Decay rate:    1.6899E-006 rev/day^2
Epoch rev:             855
Checksum:              240

Satellite: NOAA 16
Catalog number: 26536
Epoch time:      103015.77873150
Element set:     166 
Inclination:       98.8965 deg
RA of node:       324.3193 deg
Eccentricity:    0.0011294
Arg of perigee:    44.1229 deg
Mean anomaly:     316.0853 deg
Mean motion:   14.11883594 rev/day
Decay rate:    3.8299E-006 rev/day^2
Epoch rev:           11938
Checksum:              335

Satellite: SAUDISAT 1A
Catalog number: 26545
Epoch time:      103015.33012070
Element set:     398 
Inclination:       64.5580 deg
RA of node:       137.1484 deg
Eccentricity:    0.0054271
Arg of perigee:   243.9918 deg
Mean anomaly:     115.5587 deg
Mean motion:   14.78880508 rev/day
Decay rate:    2.4810E-005 rev/day^2
Epoch rev:           12415
Checksum:              301

Satellite: UNISAT
Catalog number: 26547
Epoch time:      103015.33353857
Element set:     417 
Inclination:       64.5566 deg
RA of node:       139.5000 deg
Eccentricity:    0.0061343
Arg of perigee:   246.6410 deg
Mean anomaly:     112.8225 deg
Mean motion:   14.79581678 rev/day
Decay rate:    4.1909E-005 rev/day^2
Epoch rev:           12412
Checksum:              296

Satellite: TIUNGSAT 1
Catalog number: 26548
Epoch time:      103014.39246741
Element set:     403 
Inclination:       64.5562 deg
RA of node:       133.3068 deg
Eccentricity:    0.0047579
Arg of perigee:   243.3296 deg
Mean anomaly:     116.2927 deg
Mean motion:   14.81136486 rev/day
Decay rate:    3.2529E-005 rev/day^2
Epoch rev:           12416
Checksum:              308

Satellite: SAUDISAT 1B
Catalog number: 26549
Epoch time:      103016.42436397
Element set:     667 
Inclination:       64.5485 deg
RA of node:       137.7251 deg
Eccentricity:    0.0058654
Arg of perigee:   244.2292 deg
Mean anomaly:     115.2747 deg
Mean motion:   14.77825511 rev/day
Decay rate:    2.3860E-005 rev/day^2
Epoch rev:           12424
Checksum:              318

Satellite: AMSAT OSCAR 40
Catalog number: 26609
Epoch time:      103014.42373129
Element set:     304 
Inclination:        7.9543 deg
RA of node:        70.5875 deg
Eccentricity:    0.7935115
Arg of perigee:   133.0894 deg
Mean anomaly:     327.3710 deg
Mean motion:    1.25596681 rev/day
Decay rate:    2.4999E-007 rev/day^2
Epoch rev:            1014
Checksum:              388

Satellite: GOES 12
Catalog number: 26871
Epoch time:      103016.20404841
Element set:     773 
Inclination:        0.4581 deg
RA of node:        85.7052 deg
Eccentricity:    0.0003075
Arg of perigee:    85.6828 deg
Mean anomaly:     272.1668 deg
Mean motion:    1.00287966 rev/day
Decay rate:    9.9999E-009 rev/day^2
Epoch rev:             550
Checksum:              318

Satellite: STARSHINE 3
Catalog number: 26929
Epoch time:      103016.53245669
Element set:     682 
Inclination:       67.0190 deg
RA of node:        74.1295 deg
Eccentricity:    0.0007673
Arg of perigee:   334.3584 deg
Mean anomaly:      25.7748 deg
Mean motion:   16.16750441 rev/day
Decay rate:    1.0760E-002 rev/day^2
Epoch rev:            7358
Checksum:              424

Satellite: PCSAT
Catalog number: 26931
Epoch time:      103016.42246680
Element set:     378 
Inclination:       67.0479 deg
RA of node:       340.9451 deg
Eccentricity:    0.0005284
Arg of perigee:   258.3271 deg
Mean anomaly:     101.7238 deg
Mean motion:   14.29095604 rev/day
Decay rate:    3.7100E-006 rev/day^2
Epoch rev:            6761
Checksum:              402

Satellite: SAPPHIRE
Catalog number: 26932
Epoch time:      103015.56499786
Element set:     372 
Inclination:       67.0542 deg
RA of node:       342.8653 deg
Eccentricity:    0.0006226
Arg of perigee:   239.1697 deg
Mean anomaly:     120.8793 deg
Mean motion:   14.29279184 rev/day
Decay rate:    2.0400E-006 rev/day^2
Epoch rev:            6751
Checksum:              323

Satellite: ENVISAT
Catalog number: 27386
Epoch time:      103016.36143229
Element set:     850 
Inclination:       98.5498 deg
RA of node:        85.3923 deg
Eccentricity:    0.0000994
Arg of perigee:    90.9815 deg
Mean anomaly:     269.1483 deg
Mean motion:   14.32248582 rev/day
Decay rate:   -3.1399E-006 rev/day^2
Epoch rev:            4599
Checksum:              347

